Find Local Weather

World > North America > United States > Texas

San Angelo, Texas Regional Weather

Lat: 31.45N, Lon: 100.45W
Wx Zone: TXZ072
Warning FLW WEATHER ALERT - (More Info. Click Here) Warning
Feedback
Expires:201812191000;;018969
ASUS44 KSJT 190915
RWRSJT
WEST CENTRAL TEXAS REGIONAL WEATHER ROUNDUP
NATIONAL WEATHER SERVICE SAN ANGELO TX
300 AM CST WED DEC 19 2018

NOTE: "FAIR" INDICATES FEW OR NO CLOUDS BELOW 12,000 FEET WITH NO
SIGNIFICANT WEATHER AND/OR OBSTRUCTIONS TO VISIBILITY.


TXZ049-054-064>066-071>073-076>078-098-099-113-114-127-128-139-140-
154-155-168>170-191000
...LOCATIONS ACROSS WEST CENTRAL TEXAS...
  
CITY           SKY/WX    TMP DP  RH WIND       PRES   REMARKS
SAN ANGELO     CLOUDY    47  45  93 SW3       29.88F                  
ABILENE        CLOUDY    50  48  93 SW7       29.87F                  
DYESS AFB      MOCLDY    48  46  93 SW9       29.90F                  
JUNCTION       CLOUDY    45  43  93 CALM      29.91F                  
SWEETWATER     PTCLDY    48  48 100 CALM      29.90                   
BROWNWOOD      CLOUDY    45  45 100 SE8       29.91F                  
COLEMAN        PTSUNNY   43  41  95 CALM      29.89F                  
SONORA         MOCLDY    46  46 100 CALM      29.93F                  
OZONA          CLOUDY    46  45  93 MISG      29.92F FOG              
BRADY          CLOUDY    46  43  87 CALM      29.90F                  
$$

TEXAS PANHANDLE/OKLAHOMA PANHANDLE
  
CITY           SKY/WX    TMP DP  RH WIND       PRES   REMARKS
AMARILLO       CLEAR     35  32  88 SW7       29.83F WCI  29          
BORGER         CLEAR     42  32  67 SW8       29.83F WCI  37          
CANADIAN       CLEAR     31  30  95 CALM      29.83S                  
DALHART        CLEAR     31  19  61 NW10      29.85F WCI  22          
DUMAS          SUNNY     32  22  66 W9        29.83F WCI  24          
GUYMON         NOT AVBL                                               
HEREFORD       SUNNY     33  32  95 SW5       29.87F WCI  28          
PAMPA          SUNNY     40  35  81 W10       29.84F WCI  33          
PERRYTON       CLOUDY    33  26  77 W8        29.80  WCI  26          
$$

SOUTHERN PANHANDLE/SOUTH PLAINS/ROLLING PLAINS
  
CITY           SKY/WX    TMP DP  RH WIND       PRES   REMARKS
LUBBOCK        FOG       36  36 100 W8        29.85F VSB 1/16WCI  30  
SNYDER         MOCLDY    45  45 100 S5        29.88                   
CHILDRESS      CLEAR     40  37  89 NW5       29.87F WCI  37          
SEMINOLE       MOSUNNY   35  35 100 W6        29.91F WCI  30          
$$

PERMIAN BASIN
  
CITY           SKY/WX    TMP DP  RH WIND       PRES   REMARKS
MIDLAND        MOCLDY    45  44  97 SW5       29.89F                  
ODESSA         FOG       41  39  93 W3        29.89  VSB 1/4          
WINK           FOG       35  34  96 NW6       29.88S VSB 1/4 WCI  30  
$$

FAR WEST/SOUTHWEST MOUNTAINS/TRANS PECOS
  
CITY           SKY/WX    TMP DP  RH WIND       PRES   REMARKS
ALPINE         SUNNY     47  32  56 W5        30.01S                  
DRYDEN           N/A     49  49 100 W7        29.89F                  
EL PASO        CLEAR     43  35  73 SE7       30.00R WCI  39          
FORT STOCKTON  CLEAR     46  38  73 W10       29.90S                  
GUADALUPE PASS NOT AVBL                                               
MARFA          NOT AVBL                                               
PECOS          SUNNY     40  37  86 W3        29.90S                  
$$

DALLAS/FORT WORTH METROPLEX
  
CITY           SKY/WX    TMP DP  RH WIND       PRES   REMARKS
DFW AIRPORT    CLOUDY    52  48  86 SE7       29.90F                  
FTW MEACHAM    CLOUDY    52  51  97 S6        29.91F FOG              
DAL-EXECUTIVE    N/A     51  50  96 S7        29.92F FOG              
GRAND PRAIRIE  CLOUDY    53  53 100 S6        29.93                   
ADDISON        CLOUDY    51  50  93 S9        29.94F FOG              
MESQUITE       CLOUDY    50  50  97 SE6       29.94                   
LANCASTER      CLOUDY    51  50  95 SE6       29.94S FOG              
$$

NORTH CENTRAL TEXAS
  
CITY           SKY/WX    TMP DP  RH WIND       PRES   REMARKS
SHRMAN/DENISON CLOUDY    49  47  92 S9        29.93S                  
GAINESVILLE    CLOUDY    48  46  90 S5        29.93F                  
BRIDGEPORT     CLOUDY    52  49  91 S8        29.91                   
DENTON         CLOUDY    52  48  86 S9        29.90F                  
WAXAHACHIE     CLOUDY    51  51 100 CALM      29.94S FOG              
GRANBURY       CLOUDY    55  52  92 SE3       29.92F FOG              
$$

WESTERN NORTH TEXAS
  
CITY           SKY/WX    TMP DP  RH WIND       PRES   REMARKS
WICHITA FALLS  CLOUDY    47  46  97 S6        29.88S                  
VERNON         PTSUNNY   42  40  91 W6        29.88  WCI  39          
BRECKENRIDGE   SUNNY     48  46  91 S7        29.88F                  
COMANCHE       FOG       48  48 100 S5        29.92F VSB 1/2          
$$

CENTRAL AND SOUTH CENTRAL TEXAS
  
CITY           SKY/WX    TMP DP  RH WIND       PRES   REMARKS
AUSTIN/BERGSTM CLOUDY    57  56  96 SE3       29.91F FOG              
WACO           CLOUDY    54  52  93 S7        29.91F FOG              
HILLSBORO      CLOUDY    53  53 100 S5        29.92S FOG              
TEMPLE         CLOUDY    54  54 100 S7        29.92F                  
KILLEEN-GRAY   FOG       53  53  97 SE5       29.90  VSB 1/4          
FORT HOOD      FOG       54  54 100 S3        29.87F VSB 7/8          
GEORGETOWN     CLOUDY    55  54  94 CALM      29.92F FOG              
LAGO VISTA     FOG       56  56 100 SE5       29.91F VSB 1            
SAN MARCOS     FOG       56  56 100 CALM      29.92S VSB 3/4          
NEW BRAUNFELS  FOG       57  56  96 NE5       29.90S VSB 3/4          
RANDOLPH AFB   FOG       57  57 100 CALM      29.91  VSB 3/8          
SAN ANTONIO    LGT RAIN  57  57 100 E5        29.91F VSB 1/8          
STINSON        CLOUDY    59  57  93 SE3       29.89S FOG              
PLEASANTON     NOT AVBL                                               
LA GRANGE      DRIZZLE   57  57 100 E3        29.89F                  
GIDDINGS       CLOUDY    50  50  98 E5        29.91F FOG              
$$

EAST TEXAS
  
CITY           SKY/WX    TMP DP  RH WIND       PRES   REMARKS
PARIS          FOG       45  45 100 SE9       29.97F VSB 1/4          
CLARKSVILLE    NOT AVBL                                               
TYLER          LGT RAIN  51  49  92 SE10      29.94F                  
LONGVIEW       RAIN      48  48 100 NE3       29.99S VSB 3/4          
PALESTINE      RAIN      51  51 100 E6        29.96F                  
NACOGDOCHES    CLOUDY    48  48 100 N3        29.98S FOG              
$$

TEXAS HILL COUNTRY AND EDWARDS PLATEAU
  
CITY           SKY/WX    TMP DP  RH WIND       PRES   REMARKS
LLANO          CLOUDY    54  52  94 CALM      29.95S FOG              
HORSESHOE BAY  CLOUDY    55  55  99 SE3       29.91F FOG              
KERRVILLE      FOG       49  46  92 CALM      29.92S VSB 1            
FREDERICKSBRG  FOG       52  50  95 CALM      29.92R VSB 1/4          
ROCKSPRINGS    FOG       50  50 100 S7        29.94F VSB<1/4          
HONDO          FOG       58  57  97 E5        29.90F VSB 1/2          
UVALDE         LGT RAIN  55  55 100 CALM      29.93R VSB 1/4          
DEL RIO        CLOUDY    46  46 100 CALM      29.91S FOG              
$$

SOUTHEAST TEXAS
  
CITY           SKY/WX    TMP DP  RH WIND       PRES   REMARKS
COLLEGE STN    LGT RAIN  54  54 100 E9        29.92F FOG              
CALDWELL       CLOUDY    55  54  98 E6        29.92F FOG              
CROCKETT       HVY RAIN  50  48  93 W6        30.05R                  
BRENHAM        RAIN      54  54 100 E5        29.93F                  
HUNTSVILLE     RAIN      51  51 100 VRB6      29.95F FOG              
CONROE         CLOUDY    54  54 100 N5        29.93F                  
HOUSTON BUSH   LGT RAIN  55  55 100 E8        29.90F FOG              
HOUSTON HOBBY  LGT RAIN  57  55  93 SE5       29.90F FOG              
PERLAND        CLOUDY    57  57 100 E6        29.92F                  
WHARTON        CLOUDY    55  55  97 NE3       29.90F FOG              
$$

THE UPPER TEXAS COAST
  
CITY           SKY/WX    TMP DP  RH WIND       PRES   REMARKS
ORANGE         CLOUDY    54  53  97 E7        29.95F                  
PORT ARTHUR    CLOUDY    57  51  80 E9        29.91F                  
GALVESTON      LGT RAIN  61  61 100 E9        29.90F                  
ANGLETON       CLOUDY    61  60  97 E8        29.89F                  
BAY CITY       CLOUDY    60  60 100 E6        29.89F FOG              
$$

TEXAS COASTAL BEND, RIO GRANDE PLAINS DEEP SOUTH TEXAS
  
CITY           SKY/WX    TMP DP  RH WIND       PRES   REMARKS
VICTORIA       CLOUDY    58  57  97 NE5       29.89F FOG              
BEEVILLE       FOG       63  59  88 CALM      29.90F VSB 1/4          
ROCKPORT       FOG       59  59 100 NW3       29.89S VSB 3/4          
PORT ARANSAS   FOG       61  61  99 CALM      29.90F VSB 1            
PORT LAVACA    CLOUDY    61  60  95 E7        29.89F FOG              
CORPUS CHRISTI FOG       60  59  96 CALM      29.90F VSB 1/8          
KINGSVILLE NAS FOG       61  60  97 W3        29.90  VSB 1/4          
COTULLA        FOG       54  54 100 S5        29.91F VSB 1/4          
LAREDO         FOG       54  52  94 SE3       29.90  VSB 1/4          
BROWNSVILLE    FAIR      57  56  96 NW5       29.91F                  
PORT ISABEL    FAIR      56  54  93 CALM      29.90F                  
HEBBRONVILLE   FOG       57  56  99 CALM      29.90F VSB 1/4          
MCALLEN        CLOUDY    56  54  93 CALM      29.92F                  
WESLACO        NOT AVBL                                               
FALFURRIAS     CLOUDY    59  58  94 CALM      29.90F VSB 1/4          
EDINBURG       CLOUDY    53  51  94 NW3       29.91F                  
$$
  


208
SKY/WX - Weather  TMP - Temperature  DP - Dew Point  RH - Relative Humidity
WIND - Wind Direction/Speed PRES - Barometric Pressure